Regional Weather Roundup
Issued by NWS

Home | Current Version | Previous Version | Graphics & Text | Print | Product List | Glossary On
Versions: 1 2 3 4 5 6 7 8 9 10 11 12 13 14 15 16 17 18 19 20 21 22 23 24 25 26 27 28 29 30 31 32 33 34 35 36 37 38 39 40 41 42 43 44 45 46 47 48 49 50
842
ASUS44 KMEG 261310
RWRTN
TENNESSEE HOURLY STATE WEATHER ROUNDUP
NATIONAL WEATHER SERVICE MEMPHIS TN
800 AM CDT TUE SEP 26 2017

TNZ002-004-019-021-049-052-054-088>092-261400-
WEST TENNESSEE

CITY           SKY/WX    TMP DP  RH WIND       PRES   REMARKS
MEMPHIS INTL   MOSUNNY   75  68  78 CALM      30.00R
NWS MEMPHIS      N/A     69 N/A N/A MISG        N/A
JACKSON        SUNNY     69  67  93 CALM      30.01R
DYERSBURG      SUNNY     70  68  93 CALM      30.01R
SOMERVILLE     SUNNY     66  66 100 CALM      29.99S
COVINGTON      SUNNY     68  66  94 CALM      30.00R
BOLIVAR        SUNNY     68  66  94 CALM      30.00R
PARIS          SUNNY     70  68  94 CALM      30.00S
HUNTINGDON     SUNNY     70  68  94 CALM      30.00R
LEXINGTON      MOSUNNY   68  68 100 CALM      30.01R FOG
SELMER         SUNNY     70  68  94 CALM      30.01R
SAVANNAH       SUNNY     66  64  94 CALM      30.00S
$$

TNZ008-025-027-028-033-062-065-066-261400-
NORTH MIDDLE TENNESSEE

CITY           SKY/WX    TMP DP  RH WIND       PRES   REMARKS
NASHVILLE      MOSUNNY   69  68  96 CALM      30.02S
PORTLAND       SUNNY     66  64  94 CALM      30.02R
CLARKSVILLE    SUNNY     69  66  90 CALM      30.01S FOG
SMYRNA         MOSUNNY   67  64  91 CALM      30.03S
COOKEVILLE     SUNNY     64  64 100 CALM      30.04R
GALLATIN       SUNNY     68  64  88 CALM      30.05R
CROSSVILLE     SUNNY     65  62  90 CALM      30.09R
$$

TNZ061-075-076-078-094-096-097-261400-
SOUTH MIDDLE TENNESSEE

CITY           SKY/WX    TMP DP  RH WIND       PRES   REMARKS
FAYETTEVILLE   SUNNY     68  66  94 CALM      30.03R
TULLAHOMA      SUNNY     66  63  88 CALM      30.05S
WINCHESTER     SUNNY     68  64  88 CALM      30.04S
MCMINNVILLE    SUNNY     64  64 100 CALM      30.05R
COLUMBIA       SUNNY     66 N/A N/A CALM      30.01R
SHELBYVILLE    SUNNY     66  66 100 CALM      30.03R
$$

TNZ017-018-042-046-047-261400-
NORTHEAST TENNESSEE

CITY           SKY/WX    TMP DP  RH WIND       PRES   REMARKS
TRI CITIES     MOSUNNY   64  63  96 CALM      30.07S
ELIZABETHTON   SUNNY     66  61  82 CALM      30.08R
$$

TNZ012-013-036-069-073-074-261400-
CENTRAL EAST TENNESSEE

CITY           SKY/WX    TMP DP  RH WIND       PRES   REMARKS
KNOXVILLE      MOSUNNY   66  61  84 CALM      30.04R
OAK RIDGE      MOSUNNY   67  62  84 CALM      30.06S
DOWNTOWN KNOXV SUNNY     64  64 100 CALM      30.04S
GATLINBURG     SUNNY     61  57  88 CALM      30.05R
MORRISTOWN     MOSUNNY   66  61  82 CALM      30.05S
JACKSBORO      SUNNY     63  63 100 CALM      30.09R
$$

TNZ083-085-099-261400-
SOUTHEAST TENNESSEE

CITY           SKY/WX    TMP DP  RH WIND       PRES   REMARKS
CHATTANOOGA    MOSUNNY   66  62  87 CALM      30.04R
DAYTON         SUNNY     64  64 100 CALM      30.04R
$$

SKY/WX REPORTED AS FAIR MEANS FEW OR NO CLOUDS BELOW
12 THOUSAND FEET.





USA.gov is the U.S. government's official web portal to all federal, state and local government web resources and services.